Regional Weather Roundup
Issued by NWS Little Rock, AR

Home | Current Version | Previous Version | Text Only | Print | Product List | Glossary On
Versions: 1 2 3 4 5 6 7 8 9 10 11 12 13 14 15 16 17 18 19 20 21 22 23 24 25 26 27
000
ASUS44 KLZK 280905
RWRLZK

WEATHER ROUNDUP FOR ARKANSAS
NATIONAL WEATHER SERVICE LITTLE ROCK AR
400 AM CDT SAT MAY 28 2016

NOTE: "FAIR" INDICATES FEW OR NO CLOUDS BELOW 12,000 FEET WITH NO
SIGNIFICANT WEATHER AND/OR OBSTRUCTIONS TO VISIBILITY.

ARZ001-003-010-029-281000-
NORTHWEST ARKANSAS

CITY           SKY/WX    TMP DP  RH WIND       PRES   REMARKS
FAYETTEVILLE   PTCLDY    60  60 100 CALM      29.84R
FORT SMITH     PTCLDY    65  61  87 CALM      29.83R
HARRISON       CLOUDY    63  60  90 SE7       29.86R
BENTONVILLE    CLOUDY    61  55  82 CALM      29.84S
ROGERS           N/A     61  59  93 SE6       29.85R
SILOAM SPGS    CLEAR     61  52  72 SE5       29.84S
HIGHFILL       CLOUDY    60  59  96 S3        29.84R
$$

ARZ004-005-016-281000-
NORTH CENTRAL ARKANSAS

CITY           SKY/WX    TMP DP  RH WIND       PRES   REMARKS
BATESVILLE     CLOUDY    66  64  94 S5        29.88S
FLIPPIN        CLOUDY   N/A N/A N/A CALM      29.82S
MTN HOME       CLOUDY    65  62  90 S3        29.85R
$$

ARZ040-041-281000-
WEST CENTRAL ARKANSAS

CITY           SKY/WX    TMP DP  RH WIND       PRES   REMARKS
MENA           CLOUDY    64  64 100 CALM      29.88S
MOUNT IDA      CLOUDY    62  60  93 CALM      29.85S
$$

ARZ009-017-025-026-028-281000-
NORTHEAST ARKANSAS

CITY           SKY/WX    TMP DP  RH WIND       PRES   REMARKS
CORNING          N/A     68  68 100 S6        29.89S
JONESBORO      MOCLDY    68  65  90 S5        29.89F
NEWPORT        MOCLDY    67  67 100 CALM      29.89S
WALNUT RIDGE   MOCLDY    68  63  83 S9        29.88S
BLYTHEVILLE    MOCLDY    69  66  90 S5        29.93R
$$

ARZ022-023-033-042-044-281000-
CENTRAL ARKANSAS

CITY           SKY/WX    TMP DP  RH WIND       PRES   REMARKS
LITTLE ROCK    CLOUDY    66  63  90 S5        29.88R
N LITTLE ROCK    N/A     66  63  87 SW5       29.86R
JACKSONVILLE   CLOUDY    65  64  99 S1        29.87R
SEARCY         MOCLDY    67  66  97 CALM      29.89S
HOT SPRINGS    PTCLDY    64  62  93 CALM      29.90R
RUSSELLVILLE   CLOUDY    64  63  96 CALM      29.86S
CLINTON        FAIR      64  64 100 CALM      29.88R
$$

ARZ036-281000-
EAST ARKANSAS

CITY           SKY/WX    TMP DP  RH WIND       PRES   REMARKS
WEST MEMPHIS   LGT RAIN  68  66  93 CALM      29.91R
$$

ARZ050-053-066-070-073-281000-
SOUTHWEST ARKANSAS

CITY           SKY/WX    TMP DP  RH WIND       PRES   REMARKS
ARKADELPHIA    FAIR      63  63 100 CALM      29.90R
CAMDEN         MOCLDY    63  61  94 S3        29.90S
TEXARKANA      PTCLDY    63  62  97 SE5       29.89R
EL DORADO      CLOUDY    62  62 100 CALM      29.91R
DE QUEEN       CLOUDY    63  62  97 E5        29.86S
$$

ARZ056-057-069-281000-
SOUTHEAST ARKANSAS

CITY           SKY/WX    TMP DP  RH WIND       PRES   REMARKS
PINE BLUFF     CLOUDY    66  64  93 S6        29.91R
STUTTGART      MOCLDY    70  63  78 S9        29.90R
MONTICELLO     MOCLDY    67  64  90 SE3       29.92R

$$






USA.gov is the U.S. government's official web portal to all federal, state and local government web resources and services.